Date,TemperatureHighF,TemperatureAvgF,TemperatureLowF,DewpointHighF,DewpointAvgF,DewpointLowF,HumidityHigh,HumidityAvg,HumidityLow,PressureMaxIn,PressureMinIn,WindSpeedMaxMPH,WindSpeedAvgMPH,GustSpeedMaxMPH,PrecipitationSumIn
2013-2-1,42.6,35.0,26.5,30.5,17.6,8.3,70,50,33,30.36,29.83,14,4,26,0.00
2013-2-2,39.8,31.6,22.1,24.7,14.7,10.6,67,50,35,30.39,30.00,4,0,7,0.00
2013-2-3,43.2,38.7,34.2,33.2,30.2,24.4,88,72,60,30.01,29.81,5,1,10,0.00
2013-2-4,44.4,37.3,28.5,29.7,24.5,20.3,74,60,46,30.12,29.92,5,1,11,0.00
2013-2-5,57.1,47.3,39.5,38.9,35.1,29.8,74,63,48,29.98,29.83,6,1,11,0.00
2013-2-6,52.1,44.6,37.7,39.8,35.8,31.4,84,71,59,30.31,29.92,5,1,10,0.00
2013-2-7,49.3,44.1,36.7,42.7,37.5,31.7,87,78,67,30.37,30.07,4,1,9,0.00
2013-2-8,51.3,46.2,43.2,46.4,42.8,33.1,96,88,67,30.07,29.61,14,7,24,0.00
2013-2-9,46.0,40.2,35.7,32.7,26.9,23.3,69,59,46,30.35,29.88,13,6,22,0.00
2013-2-10,49.4,39.1,27.4,38.3,27.9,20.9,84,65,45,30.48,30.29,2,0,4,0.00
2013-2-11,63.1,56.6,43.0,60.8,53.8,38.5,95,90,82,30.29,29.81,7,2,14,0.02
2013-2-12,61.2,54.5,48.5,56.9,40.2,34.1,86,60,39,30.00,29.81,7,2,13,0.00
2013-2-13,50.1,48.0,45.7,46.9,44.3,40.0,95,87,72,29.94,29.57,5,0,7,0.03
2013-2-14,48.2,42.4,37.1,44.4,37.3,34.4,94,83,69,30.08,29.71,9,1,12,0.00
2013-2-15,60.5,44.1,33.1,45.3,36.3,30.8,94,76,44,30.07,29.92,5,0,7,0.00
2013-2-16,44.7,38.4,32.9,37.9,34.2,30.6,94,85,72,29.94,29.74,10,4,15,0.00
2013-2-17,33.9,30.4,27.3,30.8,18.3,10.6,89,62,44,30.21,29.76,12,5,20,0.01
2013-2-18,44.9,33.3,20.8,26.8,16.1,10.4,68,50,34,30.39,30.21,5,1,11,0.00
2013-2-19,59.9,48.2,33.6,53.3,41.6,26.2,90,78,66,30.27,29.78,6,2,11,0.09
2013-2-20,47.8,41.9,35.9,41.8,25.7,19.9,83,55,34,30.11,29.86,7,2,19,0.00
2013-2-21,42.5,35.6,26.2,25.7,22.3,17.9,74,58,48,30.27,30.10,6,2,11,0.00
2013-2-22,45.3,39.7,35.4,40.3,31.4,23.7,92,73,58,30.34,30.12,3,0,9,0.00
2013-2-23,46.6,44.6,42.2,45.5,43.1,40.3,96,95,91,30.12,29.79,6,2,8,0.00
2013-2-24,53.8,45.6,39.7,47.5,42.3,30.8,97,89,70,30.05,29.75,11,2,16,0.07
2013-2-25,41.5,37.4,33.2,31.5,27.8,24.9,78,68,57,30.20,30.05,9,1,14,0.00
2013-2-26,63.4,48.0,32.6,62.8,45.2,27.0,98,90,79,30.17,29.52,8,1,13,0.03
2013-2-27,63.4,52.8,43.0,62.5,46.6,38.3,97,80,56,29.70,29.53,7,2,16,0.00
2013-2-28,50.8,45.1,40.2,41.1,35.7,29.3,88,70,49,29.75,29.63,5,1,17,0.00